CAPE
0 0 0 0 0 0 0 0 0 0 0 0 0 0 0 0 0 95 35 529 1652 1222 1033 1039 1226 1435 1555 1563 1699 1993 1997 2044 2066 2074 2052 2092 2128 2193 2241 2232 2165 2257 2116 2008 1768 1818 1579 1676 1637
0 0 0 0 0 0 0 0 0 0 0 0 0 0 0 0 0 125 189 322 1320 1384 1227 1078 1201 1398 1572 1672 1725 1944 2184 2218 2136 1941 1929 1887 2106 2214 2311 2230 2047 2033 2032 1912 1872 1818 1725 1652 1504
0 0 0 0 0 0 0 0 0 0 0 0 0 0 0 0 0 87 249 678 829 1430 1356 1140 1113 1265 1528 1631 1754 1856 2131 2209 2087 1882 2087 2051 1894 2098 2234 1856 1852 1494 1394 1796 1633 1601 1794 1501 1239
0 0 0 0 0 0 0 0 0 0 0 0 0 0 0 29 1 225 261 353 839 1176 1923 741 936 1140 1488 1633 1669 1667 2005 2099 1930 1834 1966 1971 1768 1908 1830 1293 1040 854 579 899 1078 1393 1302 1166 1060
0 0 0 0 0 0 0 0 0 0 0 0 0 0 0 9 2 494 410 464 1126 1678 1719 1007 820 1113 1444 1602 1627 1419 1577 1834 1886 1731 1778 1870 1946 1764 1665 1299 912 730 521 253 405 555 682 841 910
0 0 0 0 0 0 0 0 0 0 0 0 0 0 0 0 12 772 930 977 1532 2192 2040 1183 999 1085 1209 1478 1490 1234 1321 1395 1405 1545 1718 1779 1817 1453 1245 1241 1089 684 305 47 132 394 350 291 320
0 0 0 0 0 0 0 0 0 0 0 0 0 0 0 0 160 631 1205 1644 2268 2521 2251 1507 1231 1054 1022 1045 1238 1172 1066 1193 1144 1271 1361 1512 1420 1230 955 941 906 800 625 673 742 461 262 189 176
0 0 0 0 0 0 0 0 0 0 0 0 0 0 0 109 198 935 1489 2286 2563 2688 2791 2122 1845 1387 1328 1273 940 1075 1024 954 934 1029 1187 1277 1154 1024 894 817 858 860 794 670 498 372 233 172 130
0 0 0 0 0 0 0 0 0 0 0 0 0 0 1 74 985 1355 1567 2317 2682 2558 2482 2742 2437 1986 1910 1748 1175 777 827 742 652 853 931 878 1110 894 740 748 710 696 578 362 228 252 186 137 89
0 0 0 0 0 0 0 0 0 0 0 0 0 0 0 13 806 1352 1605 2078 2397 2684 2532 2387 2507 2317 2396 1603 1415 1421 1307 1029 1101 1276 1060 1479 1186 856 691 488 450 428 352 265 233 223 100 96 51
0 0 0 0 0 0 0 0 0 0 0 0 0 0 0 0 47 1016 1215 1760 2080 2162 2380 2077 2166 2466 2406 1756 2093 1722 1600 1511 1336 1473 1436 1439 902 883 517 261 462 233 218 216 219 120 67 58 41
0 0 0 0 0 0 0 0 0 0 0 0 0 0 0 0 0 62 602 1022 1601 1819 2201 2169 1953 2316 2208 2215 2142 1868 1533 1459 1227 1578 1648 1405 1112 942 641 445 318 455 295 330 165 118 94 23 24
0 0 0 0 0 0 0 0 0 0 0 0 0 0 0 0 0 0 0 81 627 1388 1931 1993 1868 2031 2153 2488 1511 1712 1636 1541 1136 1492 1415 1182 1064 941 730 574 594 483 398 323 188 143 103 41 24
0 0 0 0 0 0 0 0 0 0 0 0 0 0 0 0 0 0 0 0 0 706 1719 2119 1936 1943 2033 2065 1889 1592 1239 1196 1275 873 1181 1475 1020 855 729 579 534 680 459 392 249 198 110 41 56
0 0 0 1 0 0 0 0 0 0 0 0 0 0 0 0 0 0 0 0 0 3 1726 2247 2072 1557 1806 2064 2011 1334 1012 1242 1193 929 964 1132 1074 1083 720 578 654 683 443 510 237 99 94 63 86
0 0 0 0 0 1 1 0 0 0 0 0 0 0 0 0 0 0 0 0 0 0 528 2417 2190 1519 1393 2017 1848 1234 921 1039 1107 1071 847 730 720 696 667 624 658 594 475 333 142 47 65 46 50
0 0 0 0 0 0 0 0 0 0 0 0 0 0 0 0 0 0 0 0 0 0 110 2241 2148 1567 1213 1594 1865 1514 1051 791 798 892 1018 937 751 604 570 416 411 202 224 284 210 89 18 38 40
0 0 0 0 0 0 0 0 0 0 0 0 0 0 0 0 0 0 0 0 0 0 3 2359 2288 1691 1195 1139 1651 1280 1315 735 751 745 631 518 724 623 599 337 247 170 230 196 183 73 76 40 32
0 0 11 6 1 0 13 0 0 0 0 0 0 0 0 0 0 0 0 0 0 0 71 1640 2385 2128 1370 1018 973 891 826 578 338 561 673 411 389 334 295 173 142 154 114 78 138 69 92 37 32
0 68 98 1 0 22 0 0 27 0 0 0 0 0 0 0 0 0 0 0 0 0 0 100 1904 2296 1740 1024 889 612 467 415 309 289 504 393 393 381 225 71 34 83 37 49 70 39 23 24 7
2 26 19 6 14 0 1 0 0 0 1 0 0 0 0 1 0 0 5 12 35 59 75 0 481 1966 1950 1228 716 645 526 452 353 574 472 499 267 282 139 37 1 2 1 5 19 18 10 11 6
39 49 135 68 0 2 2 0 0 2 0 0 0 1 0 0 3 8 5 2 6 1 0 2 0 555 1884 1046 665 811 728 639 455 487 371 418 267 165 49 4 5 1 1 0 6 23 10 6 9
28 83 92 27 0 0 0 0 0 0 0 0 0 16 27 35 12 0 0 0 0 0 0 10 0 2 1629 1076 954 918 977 701 512 357 331 149 11 0 0 0 3 1 2 2 5 14 28 33 4
41 43 0 0 0 23 0 2 0 0 0 0 9 31 41 20 0 0 0 0 0 0 0 42 229 79 1604 1390 1165 1156 1167 774 532 339 227 15 1 4 0 3 4 13 1 3 1 1 4 24 13
57 34 4 11 11 1 0 0 0 0 0 39 71 67 40 5 0 0 0 0 0 0 0 0 24 134 1374 1363 1278 1450 1180 1135 664 141 70 0 1 1 2 3 1 1 1 2 3 10 12 18 34
0 2 19 0 0 0 0 2 15 33 61 34 95 38 2 0 0 0 0 0 0 0 0 0 0 338 1125 982 1107 1340 1178 1139 426 34 177 9 0 3 1 1 6 3 2 3 2 14 2 14 28
0 12 22 143 9 16 0 0 0 36 32 62 25 0 0 0 0 0 0 0 0 0 0 0 0 373 517 532 588 1067 1107 1037 320 133 215 1 1 3 1 0 1 0 1 0 0 0 0 0 1
1 3 8 20 63 42 4 25 44 30 1 25 0 0 0 0 0 0 0 0 0 0 0 0 12 440 188 189 211 468 852 772 329 114 85 29 0 1 0 0 0 0 0 0 0 0 0 0 0
0 0 14 12 17 4 17 113 10 0 12 18 0 0 0 0 0 0 0 0 0 0 0 0 237 355 151 96 95 147 587 220 258 117 113 31 5 3 2 1 1 1 0 0 0 0 0 0 0
16 21 6 27 11 29 4 61 5 55 54 1 0 1 1 3 4 5 1 1 0 1 2 1 0 92 105 40 5 15 42 98 112 156 103 63 8 0 0 2 1 1 1 0 0 0 0 0 0
CIN
0 0 0 0 0 0 0 0 0 0 0 0 0 0 0 0 0 -44 -214 -125 -130 -242 -397 -368 -290 -214 -173 -143 -90 -27 -2 -1 -2 -2 -2 -3 -0 -0 0 -0 -1 -0 -0 0 0 0 0 0 0
0 0 0 0 0 0 0 0 0 0 0 0 0 0 0 0 0 -94 -130 -125 -114 -209 -279 -320 -286 -214 -165 -117 -71 -19 0 0 -0 -4 -6 -16 -10 -1 -0 -1 -2 -1 -0 0 0 0 0 0 -1
0 0 0 0 0 0 0 0 0 0 0 0 0 0 0 0 0 -128 -135 -104 -120 -156 -160 -326 -303 -238 -175 -115 -54 -21 -0 -0 -1 -12 -1 -5 -20 -3 -1 -13 -6 -12 -12 -2 -1 0 0 -0 -8
0 0 0 0 0 0 0 0 0 0 0 0 0 0 0 -100 -213 -85 -133 -106 -105 -125 -184 -479 -353 -273 -179 -110 -59 -34 -1 -1 -7 -14 -7 -14 -25 -12 -17 -24 -17 -30 -6 -3 -4 -11 -15 -10 -18
0 0 0 0 0 0 0 0 0 0 0 0 0 0 0 -173 -153 -64 -75 -96 -97 -121 -247 -375 -374 -270 -173 -106 -70 -63 -24 -7 -11 -19 -21 -23 -16 -16 -18 -24 -34 -2 -1 -54 -23 -13 -23 -35 -33
0 0 0 0 0 0 0 0 0 0 0 0 0 0 0 0 -150 -39 -76 -87 -103 -109 -171 -327 -318 -270 -215 -128 -94 -90 -45 -27 -40 -31 -25 -16 -18 -27 -32 -27 -21 -14 -59 -139 -100 -10 -39 -59 -79
0 0 0 0 0 0 0 0 0 0 0 0 0 0 0 0 -85 -61 -90 -65 -75 -78 -147 -243 -268 -251 -237 -191 -124 -98 -70 -36 -54 -45 -34 -28 -20 -35 -23 -24 -31 -32 -23 -11 0 -27 -77 -95 -57
0 0 0 0 0 0 0 0 0 0 0 0 0 0 0 -15 -53 -46 -53 -43 -66 -64 -66 -148 -163 -199 -196 -151 -156 -102 -77 -60 -75 -62 -32 -28 -36 -36 -53 -52 -44 -33 -13 -11 -36 -57 -69 -74 -62
0 0 0 0 0 0 0 0 0 0 0 0 0 0 -54 -128 -18 -25 -40 -28 -38 -59 -77 -71 -85 -117 -119 -103 -127 -152 -121 -114 -123 -90 -69 -69 -36 -38 -56 -47 -52 -43 -42 -53 -71 -53 -90 -115 -97
0 0 0 0 0 0 0 0 0 0 0 0 0 0 0 -237 -43 -30 -24 -34 -30 -38 -72 -99 -72 -70 -49 -96 -128 -64 -51 -78 -49 -22 -51 -22 -17 -23 -21 -50 -61 -55 -55 -44 -45 -34 -74 -78 -69
0 0 0 0 0 0 0 0 0 0 0 0 0 0 0 0 -195 -36 -24 -16 -48 -56 -61 -138 -109 -60 -43 -89 -58 -49 -33 -23 -21 -8 -13 -9 -9 -19 -24 -47 -19 -42 -42 -29 -23 -44 -69 -75 -65
0 0 0 0 0 0 0 0 0 0 0 0 0 0 0 0 0 -194 -56 -16 -10 -23 -77 -126 -147 -83 -61 -41 -59 -54 -59 -44 -42 -11 -10 -12 -17 -22 -12 -18 -30 -18 -14 -4 -25 -46 -44 -63 -45
0 0 0 0 0 0 0 0 0 0 0 0 0 0 0 0 0 0 0 -136 -12 -41 -100 -155 -178 -126 -68 -21 -112 -63 -59 -55 -46 -13 -8 -14 -11 -8 -9 -11 -21 -17 -11 -7 -7 -20 -16 -39 -49
0 0 0 0 0 0 0 0 0 0 0 0 0 0 0 0 0 0 0 0 -15 -43 -98 -176 -203 -157 -82 -55 -74 -93 -114 -98 -40 -50 -10 -4 -19 -14 -5 -13 -11 -7 -16 -18 -7 -10 -25 -64 -48
0 0 0 0 0 0 0 0 0 0 0 0 0 0 0 0 0 0 0 0 0 -3 -82 -164 -194 -249 -125 -50 -51 -130 -135 -76 -68 -72 -30 -8 -26 -12 -8 -8 -12 -9 -14 -3 -9 -45 -20 -46 -34
0 0 0 0 0 -0 -2 0 0 0 0 0 0 0 0 0 0 0 0 0 0 0 -37 -140 -166 -269 -201 -69 -57 -171 -167 -86 -74 -77 -91 -53 -31 -27 -29 -10 -5 -16 -8 -3 -25 -68 -43 -35 -35
0 0 0 0 0 0 -1 0 0 0 0 0 0 0 0 0 0 0 0 0 0 0 -53 -132 -199 -274 -258 -126 -59 -80 -164 -142 -83 -89 -74 -46 -29 -20 -7 -14 -15 -22 -18 -4 -7 -34 -58 -32 -29
0 0 0 0 0 0 -1 0 0 0 0 0 0 0 0 0 0 0 0 0 0 0 -80 -117 -163 -260 -256 -183 -85 -107 -72 -187 -105 -72 -98 -88 -32 -21 -1 -4 -12 -22 -7 -3 -2 -28 -21 -31 -43
0 0 -0 -3 -50 0 -9 0 0 0 0 0 0 0 0 0 0 0 0 0 0 0 -85 -47 -90 -135 -227 -217 -184 -180 -164 -214 -220 -116 -57 -93 -71 -46 -11 -13 -20 -11 -1 -5 -5 -10 -13 -12 -30
0 -0 -3 -11 0 -28 -0 -0 -6 -1 -0 0 0 0 0 0 0 0 0 -1 0 0 0 -86 -55 -67 -141 -233 -190 -212 -214 -211 -209 -186 -110 -93 -63 -45 -29 -57 -82 -23 -6 -1 -5 -12 -11 -20 -27
0 -1 -56 -10 -57 0 0 0 0 0 -0 -0 0 0 0 -2 0 0 -11 -64 -98 -109 -124 0 -68 -47 -84 -169 -178 -164 -161 -171 -185 -142 -130 -90 -110 -54 -58 -60 0 -12 -5 -31 -22 -21 -24 -29 -10
-0 -0 -2 -1 -0 -0 -2 -0 -0 -3 0 0 0 -2 -3 0 -27 -42 -56 -71 -85 -24 -26 -55 0 -54 -50 -190 -180 -128 -144 -164 -205 -160 -158 -98 -120 -97 -97 -2 0 0 -0 -1 -30 -19 -16 -23 -5
-3 -0 -1 -14 0 0 0 -0 0 0 0 0 0 -18 -47 -35 -32 0 0 0 0 0 0 -201 -9 -155 -78 -182 -156 -98 -63 -138 -161 -170 -152 -205 -113 0 -0 -0 -0 0 0 -16 -32 -3 -7 -13 -22
-6 -40 -15 -9 0 0 0 -1 0 0 0 0 -2 -20 -14 -31 0 0 0 0 0 0 0 -174 -85 -128 -99 -108 -98 -59 -48 -107 -136 -179 -190 -243 -0 -0 -1 -0 0 0 0 -30 -0 -0 -15 -13 -18
-6 -5 -14 -1 -2 0 0 -0 0 0 0 0 -4 -1 -26 -20 0 0 0 0 0 0 0 0 -49 -42 -113 -87 -68 -24 -42 -42 -100 -243 -253 0 0 0 0 0 0 0 0 0 -0 -5 -7 -3 -9
0 -1 -1 0 0 0 0 -0 -19 -3 -2 -11 -7 -65 -27 -8 0 0 0 0 0 0 0 0 0 -24 -87 -120 -70 -12 -30 -33 -109 -298 -207 -258 0 -0 0 0 0 0 0 0 0 -1 -1 -10 -10
-0 -0 -9 -1 -4 -11 -1 0 0 -35 -1 -8 -20 0 0 0 0 0 0 0 0 0 0 0 0 -37 -171 -178 -134 -12 -31 -27 -135 -248 -206 -232 -1 -0 -0 0 0 0 0 0 0 0 0 0 -33
-0 -0 -2 -0 -0 -0 -3 -4 -2 -11 -1 -9 0 0 0 0 0 0 0 0 0 0 0 0 -13 -97 -275 -235 -174 -85 -44 -32 -120 -245 -233 -216 -0 -0 0 0 0 0 0 0 0 0 0 -13 0
-1 0 -2 -0 0 -2 -2 0 0 -0 0 -22 -59 0 0 0 0 0 0 0 0 0 0 0 -28 -92 -151 -177 -177 -157 -58 -136 -120 -223 -204 -231 -104 -0 0 0 0 0 0 0 0 -0 0 0 0
-1 -15 -11 -4 -1 -14 0 0 -46 -1 -9 -37 0 0 -0 0 0 0 0 0 0 0 0 0 0 -63 -93 -125 -53 -246 -217 -182 -146 -195 -194 -210 -158 -0 -0 0 0 0 0 0 0 0 -0 -0 -0
Wind_Speed
7 10 8 9 7 9 16 19 20 16 3 2 6 4 8 11 11 6 13 16 19 15 14 13 11 10 9 9 9 9 11 11 12 11 12 13 12 11 11 11 10 12 14 15 14 13 14 14 14
9 13 10 7 10 13 14 22 20 8 3 10 6 7 4 4 16 14 11 15 18 16 12 12 11 10 9 8 8 8 11 12 13 12 12 13 13 13 13 12 11 11 13 15 15 15 16 14 14
9 16 8 7 14 17 17 23 13 6 12 5 2 7 5 1 9 10 16 14 14 15 12 14 11 11 10 8 7 7 9 10 11 11 12 12 13 12 12 13 12 13 14 13 14 15 16 12 12
7 6 8 13 21 21 26 22 23 6 9 6 8 9 7 12 9 10 16 15 13 12 16 16 13 11 10 8 7 7 7 9 10 10 11 13 12 13 12 11 9 10 5 7 8 11 15 11 10
10 7 11 17 23 25 23 23 18 8 8 9 11 14 6 10 9 19 14 12 12 12 13 14 12 11 11 9 8 6 6 8 9 11 12 13 12 11 11 10 15 18 20 12 12 12 8 7 9
9 10 15 17 25 26 21 20 24 10 10 8 3 9 7 13 11 14 12 9 11 13 11 12 11 11 11 10 8 7 4 4 3 7 10 11 11 11 10 13 15 21 20 16 14 18 11 2 5
17 13 19 23 23 26 23 22 22 13 13 14 11 13 9 15 12 13 14 9 9 9 11 10 10 9 9 7 8 8 6 4 3 4 6 9 9 11 10 13 20 19 18 16 17 15 14 9 4
14 15 27 23 20 26 23 23 3 7 15 13 9 5 3 6 13 12 14 12 10 7 7 11 9 9 9 7 7 7 7 4 2 3 7 9 10 11 17 16 20 20 19 18 16 16 16 13 1
22 18 22 28 26 23 24 21 7 6 11 17 16 9 8 4 8 9 11 11 10 8 7 7 9 9 10 10 8 8 8 7 5 4 8 9 6 9 14 13 15 18 17 16 15 13 13 15 9
22 18 36 24 23 22 25 24 13 9 15 16 13 9 12 5 5 9 12 13 13 12 11 8 7 7 7 7 9 8 7 6 5 5 6 4 5 7 9 11 14 14 16 15 14 13 13 12 4
26 29 24 27 27 26 26 25 11 13 18 13 14 14 11 8 8 11 14 14 15 13 10 11 8 7 7 7 7 5 4 4 5 6 6 5 6 5 6 5 6 7 9 6 8 9 6 8 6
29 34 28 30 27 25 24 23 21 18 15 11 13 16 16 15 11 11 13 16 16 15 14 13 11 7 7 8 8 8 6 5 4 5 6 4 3 5 6 5 5 7 7 7 8 6 7 8 8
31 31 29 29 27 27 26 25 19 20 15 16 14 14 11 15 13 12 13 12 15 18 17 15 12 9 8 6 6 4 4 6 5 5 7 5 4 5 6 7 5 4 5 5 7 8 7 8 9
27 28 29 28 27 27 26 24 22 20 16 18 16 17 17 14 15 12 12 13 12 14 18 18 15 11 8 7 7 5 4 5 4 4 4 6 6 5 5 5 5 5 6 7 8 8 8 7 6
26 29 29 28 31 28 24 29 32 18 20 22 21 18 18 19 19 18 15 11 10 8 19 19 17 15 11 9 8 9 7 7 8 7 6 6 5 5 6 4 4 4 5 7 7 7 6 7 6
27 28 25 31 27 26 24 33 25 22 22 23 22 20 20 22 21 19 17 16 12 12 13 20 16 16 13 11 8 9 8 6 8 8 8 10 9 6 6 4 4 5 5 7 7 8 7 6 7
25 21 31 31 26 24 21 35 24 25 24 26 24 20 19 19 19 17 15 14 14 10 9 19 18 18 15 11 5 6 11 7 6 8 7 10 9 10 7 6 5 7 7 7 8 8 9 8 6
24 27 24 25 21 24 24 31 22 21 22 20 13 17 19 21 21 16 15 14 10 12 8 19 17 18 16 9 5 6 5 7 4 4 7 10 9 10 8 6 6 7 7 8 7 9 8 9 9
26 27 26 19 12 15 14 28 25 24 20 20 13 14 12 12 12 10 8 12 8 7 7 15 17 17 14 11 9 8 7 6 5 5 5 7 6 8 8 5 6 8 9 11 11 8 11 7 7
30 26 24 16 19 18 10 21 26 18 21 18 15 11 15 7 6 7 7 8 7 6 8 7 15 17 15 11 9 6 7 6 7 6 6 9 9 10 7 8 8 9 8 11 10 11 8 4 8
27 28 19 17 9 12 10 17 28 23 16 15 19 18 16 11 13 12 5 5 5 4 6 11 10 18 16 14 9 7 7 6 8 9 9 7 7 6 7 9 9 10 9 10 11 11 13 9 8
25 26 15 17 5 3 4 7 16 18 15 18 13 9 9 6 6 6 6 7 7 7 7 7 8 10 16 18 14 16 11 10 8 7 7 7 7 7 8 9 10 10 10 13 12 9 9 9 11
20 17 19 13 9 7 16 4 11 19 23 18 17 9 10 7 8 9 10 10 11 9 8 6 10 11 17 19 17 14 12 9 8 8 10 7 6 7 8 7 9 10 10 11 13 13 10 7 10
10 13 3 9 7 7 18 16 12 9 10 13 13 11 8 8 8 9 11 14 14 14 15 11 9 12 17 18 17 17 15 11 9 10 7 7 7 7 8 7 7 10 10 13 13 13 13 10 9
10 13 5 6 8 9 15 15 12 5 9 16 13 8 13 13 13 12 14 15 16 18 18 16 12 11 15 16 16 13 14 11 11 10 7 10 7 6 7 7 5 6 9 9 11 14 13 13 10
16 15 7 8 10 11 16 10 10 4 14 13 15 17 13 11 12 12 14 14 16 18 21 20 18 12 14 14 11 12 13 8 7 9 8 8 8 8 10 7 6 8 8 9 6 6 9 9 8
17 14 7 4 7 2 9 9 12 19 11 18 16 14 13 13 14 15 16 14 16 17 21 21 22 10 14 11 8 9 10 10 7 10 10 8 9 8 10 9 8 7 8 9 9 5 7 7 5
10 12 3 3 3 0 9 13 9 8 10 17 17 15 17 18 17 15 15 16 16 17 18 27 15 13 13 13 10 7 9 6 7 10 9 11 11 12 11 10 9 8 8 6 9 7 7 8 5
12 5 4 6 9 0 3 5 5 3 11 17 17 20 16 16 15 15 15 15 16 16 18 21 7 10 10 10 10 4 4 7 7 8 9 11 13 12 12 12 9 10 10 9 8 8 10 9 8
7 7 13 5 0 6 3 6 8 13 16 18 16 15 16 16 17 17 16 15 16 18 19 19 18 6 8 8 6 3 2 6 6 10 9 8 12 12 11 11 10 10 10 11 11 10 10 12 11
Wind_Direction
258 245 246 259 246 231 254 251 253 261 338 337 7 315 324 32 28 72 96 106 110 116 119 132 125 131 135 143 148 159 166 162 161 157 156 155 155 153 146 144 144 145 143 137 134 129 125 112 104
230 245 242 276 240 247 249 243 242 241 105 79 17 294 289 314 101 116 111 124 120 121 136 134 136 133 133 137 147 161 173 172 168 172 176 168 171 164 154 150 153 158 151 147 142 138 127 122 114
250 259 254 232 237 245 257 271 325 111 104 115 221 227 249 237 98 142 124 121 132 124 147 130 143 138 133 138 147 158 176 178 175 174 179 186 179 167 161 164 164 165 157 150 144 134 125 116 116
201 224 245 260 247 236 238 267 280 276 134 158 246 247 203 45 104 122 132 134 125 133 113 135 144 141 140 147 146 152 173 181 178 175 176 188 186 171 171 180 154 75 11 90 126 142 121 112 123
227 233 231 247 247 254 270 274 293 296 260 201 208 244 194 126 120 125 137 139 127 113 119 138 141 146 148 148 141 145 164 174 179 186 186 187 181 168 167 139 128 119 119 89 27 50 50 126 142
206 222 247 247 248 256 254 257 275 225 237 188 258 259 255 153 149 126 133 138 124 121 134 132 149 150 149 149 146 147 164 163 168 194 190 189 176 168 172 158 146 146 141 147 149 133 136 336 179
234 221 235 247 260 271 262 233 246 192 228 251 203 232 232 147 150 132 134 128 117 114 126 139 153 157 144 153 155 151 167 186 182 208 204 180 172 164 158 136 140 145 147 149 148 146 123 115 313
237 252 249 245 250 260 269 278 248 218 248 258 256 225 224 76 142 136 137 124 116 118 129 148 150 161 153 156 161 156 162 168 176 209 165 159 154 146 129 133 144 151 149 152 148 140 135 124 140
247 245 247 239 244 257 268 267 209 199 251 250 244 211 93 69 117 139 145 136 142 156 163 151 156 168 163 157 162 164 159 146 133 155 157 156 170 162 144 141 146 145 148 150 147 149 141 130 157
230 240 241 247 246 248 254 265 266 237 217 251 220 221 112 148 169 184 173 165 170 172 165 158 165 168 170 142 143 174 170 172 175 168 159 172 159 162 158 133 143 145 152 157 155 151 141 143 151
227 239 247 247 247 260 265 266 251 237 247 224 241 219 154 177 201 208 197 182 180 179 167 163 179 172 180 160 158 173 176 176 171 178 160 174 168 166 145 136 157 159 167 166 159 153 153 156 159
245 240 242 252 263 270 257 262 260 214 239 252 231 214 179 185 210 208 218 199 183 175 171 166 170 190 197 155 163 176 175 160 167 177 163 156 170 155 162 163 166 160 171 175 171 161 161 169 181
243 246 248 245 249 258 268 265 265 259 264 241 263 266 219 186 204 224 216 230 200 176 170 172 165 192 184 203 160 161 144 152 169 172 166 170 178 162 171 172 166 157 173 170 172 163 169 179 183
256 256 255 254 249 241 251 258 258 240 251 262 251 246 261 241 207 228 238 219 225 183 169 164 168 175 204 191 159 152 135 147 169 183 193 186 174 160 178 171 174 171 199 182 173 165 169 178 173
260 259 258 247 247 246 244 251 242 249 243 236 241 245 242 246 232 229 236 227 214 209 169 162 163 165 193 207 168 164 161 196 179 179 187 184 175 160 162 181 180 175 177 153 164 151 165 167 163
259 248 251 246 253 247 237 249 240 234 236 238 237 228 241 240 244 231 213 234 220 206 170 162 161 164 185 220 181 159 179 194 170 175 174 193 191 183 172 172 186 195 161 162 164 157 163 169 172
244 246 236 246 244 247 230 249 240 250 235 230 230 229 225 241 224 226 224 229 216 225 178 165 158 165 178 222 189 168 172 185 209 172 166 182 191 194 194 190 192 190 178 178 167 167 170 168 165
231 236 238 248 234 237 245 246 240 241 239 246 237 214 229 220 232 222 216 225 219 215 213 165 159 160 170 193 219 180 172 177 207 181 166 182 192 195 196 197 194 178 174 179 166 170 169 169 167
237 240 240 234 295 272 262 259 233 228 234 249 235 198 224 222 201 215 217 215 225 207 192 159 162 158 159 175 200 189 196 166 187 223 211 167 170 188 199 174 183 177 182 178 178 171 162 160 168
247 245 256 269 278 285 246 273 289 241 229 232 221 214 226 221 240 238 226 202 211 219 177 181 167 162 165 172 183 185 192 186 189 210 196 203 198 187 175 163 169 178 180 178 175 174 162 159 167
227 241 242 251 255 353 296 283 263 254 241 230 197 207 214 220 227 230 263 349 351 303 197 190 183 171 167 169 168 182 190 166 194 204 203 198 184 167 159 165 167 180 181 182 177 173 175 167 177
235 228 212 244 78 255 284 277 281 229 250 260 254 199 200 216 38 17 349 323 317 303 300 205 195 188 167 164 175 196 190 187 196 193 190 203 161 139 155 167 183 191 196 182 180 173 171 165 176
241 226 206 228 189 246 274 262 269 261 225 226 239 130 76 67 41 14 357 338 320 322 298 267 200 207 160 173 178 194 206 183 182 187 198 143 141 148 188 185 195 191 191 181 176 179 166 168 170
206 69 123 225 214 240 231 228 246 220 245 136 101 102 105 78 60 24 358 350 337 337 334 300 232 200 158 175 189 193 199 176 182 183 158 156 167 167 177 166 187 205 191 186 180 180 181 173 168
145 169 191 188 212 231 218 227 235 88 201 110 99 97 66 50 41 24 10 352 337 322 311 301 276 206 155 179 187 208 184 199 181 174 158 165 157 155 169 156 147 169 175 174 182 174 177 179 177
187 193 191 195 208 220 214 240 154 61 112 121 84 57 47 44 40 27 12 352 333 313 313 308 307 203 157 173 201 207 189 196 165 166 169 161 160 164 159 150 157 152 145 159 157 165 155 160 182
188 206 189 325 257 123 171 76 170 149 181 83 73 58 31 19 30 13 0 353 325 318 313 309 290 247 148 160 190 224 197 193 158 166 151 151 157 155 158 156 163 157 158 145 134 119 116 125 132
195 198 180 239 252 208 191 154 116 88 64 75 65 51 35 20 9 3 354 344 334 331 318 307 259 152 150 149 193 229 203 176 152 155 149 156 155 160 154 157 164 164 151 161 155 146 141 153 153
209 206 159 261 248 230 161 61 79 83 68 72 62 53 37 22 5 4 353 347 347 342 345 356 356 144 151 165 189 219 214 146 139 156 164 164 158 157 155 160 167 173 168 167 167 165 162 173 175
172 220 187 284 160 99 342 101 341 82 65 71 65 59 49 37 22 16 3 355 3 356 358 2 354 340 155 152 133 158 349 152 158 156 164 150 153 156 155 155 165 175 173 171 174 171 174 180 190